Location: Unspecified
(0.0000°N, 0.0000°E)
Time: 01:25:06
(UTC+00:00)

Transit 4A - Pass Details

Date: 22 November 2019
Orbit: 870 x 975 km, 66.8° (Epoch: 11 December)

Event Time Altitude Azimuth Distance (km) Brightness Sun altitude
Rises 07:42:46 0° 337° (NNW) 3,440 10.5 27.3°
Reaches altitude 10° 07:45:13 10° 336° (NNW) 2,504 9.8 27.8°
Maximum altitude 07:50:59 77° 251° (WSW) 898 8.2 29.1°
Drops below altitude 10° 07:56:51 10° 165° (SSE) 2,541 10.8 30.5°
Sets 07:59:22 0° 163° (SSE) 3,493 11.4 31.1°
